Location: Unspecified
(0.0000°N, 0.0000°E)
Time: 20:00:42
(UTC+01:00)

Cosmos 1536 - Visible Passes

Search period start: 02 March 2015 00:00
Search period end: 12 March 2015 00:00
Orbit: 546 x 566 km, 82.5° (Epoch: 01 March)

Date Brightness Start Highest point End Pass type
(mag) Time Alt. Az. Time Alt. Az. Time Alt. Az.
02 Mar 3.1 06:11:30 10° N 06:15:33 72° E 06:19:38 10° S visible
03 Mar 2.8 06:09:07 10° N 06:13:12 88° E 06:17:18 10° S visible
04 Mar 2.7 06:06:46 10° N 06:10:50 76° W 06:14:56 10° S visible
05 Mar 2.8 06:04:26 10° NNW 06:08:28 61° W 06:12:31 10° S visible
06 Mar 3.0 06:02:08 10° NNW 06:06:06 50° W 06:10:05 10° S visible
07 Mar 3.2 06:01:57 26° NW 06:03:43 41° W 06:07:36 10° SSW visible
08 Mar 3.6 06:01:51 32° WSW 06:01:51 32° WSW 06:05:03 10° SSW visible
09 Mar 4.7 06:01:20 16° SW 06:01:20 16° SW 06:02:29 10° SSW visible
